FW4822 Weather Reports


Display with metric or nautical units.
time (UTC)temp
F
wind
direction
speed
MPH
gust
MPH
rain 1hr
in
rain 24hr
in
rain mn
in
humidity
%
barometer
mb
20260510104530 47 243 0.0 0.0 0.00 0.41 0.00 96 1011.5
20260510101532 47 243 0.0 0.0 0.00 0.46 0.00 96 1011.0
20260510100030 47 243 0.0 4.0 0.00 0.46 0.00 96 1010.7
20260510094541 46 243 2.0 3.0 0.00 0.46 0.00 96 1010.6
20260510091533 46 236 0.0 5.0 0.00 0.47 0.00 96 1010.2
20260510090027 46 229 1.0 5.0 0.00 0.47 0.00 96 1010.2
20260510084525 46 223 0.0 2.0 0.00 0.47 0.00 96 1010.2
20260510081526 47 223 0.0 3.0 0.00 0.48 0.00 96 1010.1
20260510080027 47 223 0.0 0.0 0.00 0.48 0.00 96 1009.7
20260510074525 47 223 0.0 3.0 0.00 0.48 0.00 96 1009.8
20260510071527 47 226 0.0 5.0 0.00 0.50 0.00 96 1009.9
20260510070017 47 226 0.0 3.0 0.00 0.50 0.00 95 1009.7
20260510064514 47 226 1.0 5.0 0.00 0.50 0.00 96 1010.0
20260510061513 47 223 0.0 7.0 0.00 0.53 0.50 95 1009.9
20260510060023 47 211 0.0 6.0 0.00 0.53 0.50 95 1010.0
20260510054513 47 256 0.0 1.0 0.00 0.53 0.50 95 1010.0
20260510051513 47 256 0.0 3.0 0.02 0.56 0.50 95 1010.0
20260510050010 47 256 0.0 4.0 0.03 0.56 0.50 95 1010.1
20260510044510 47 227 0.0 4.0 0.03 0.56 0.50 95 1009.8
20260510041505 47 227 0.0 5.0 0.04 0.62 0.49 95 1010.9
20260510040006 47 242 0.0 4.0 0.05 0.61 0.48 94 1010.9
20260510034512 48 243 1.0 5.0 0.04 0.60 0.47 94 1011.0
20260510031511 48 5 2.0 8.0 0.03 0.64 0.46 92 1010.9
20260510030017 50 42 3.0 19.0 0.00 0.61 0.43 91 1010.9
20260510024509 51 242 0.0 2.0 0.00 0.61 0.43 93 1009.7
20260510021512 51 240 0.0 7.0 0.00 0.63 0.43 93 1009.4
20260510020011 51 251 3.0 7.0 0.00 0.63 0.43 94 1009.1
20260510014511 51 211 2.0 7.0 0.00 0.63 0.43 93 1008.7
20260510011516 51 212 2.0 8.0 0.00 0.68 0.43 93 1008.4
20260510010014 52 184 1.0 5.0 0.00 0.68 0.43 92 1008.4
20260510004514 53 214 1.0 6.0 0.00 0.68 0.43 91 1008.3
20260510001508 53 230 2.0 10.0 0.00 0.68 0.43 91 1008.0
20260510000007 53 222 4.0 9.0 0.00 0.68 0.43 91 1007.8
20260509234509 53 217 2.0 9.0 0.00 0.68 0.43 91 1007.8
20260509231512 54 225 2.0 12.0 0.00 0.68 0.43 91 1007.6
20260509230006 55 242 1.0 6.0 0.00 0.68 0.43 90 1007.3
20260509224504 55 230 0.0 6.0 0.00 0.68 0.43 92 1007.5
20260509221556 54 191 0.0 5.0 0.00 0.68 0.43 94 1007.5
20260509220106 54 273 1.0 9.0 0.00 0.68 0.43 96 1007.6
20260509214558 53 280 0.0 5.0 0.00 0.68 0.43 97 1007.6
20260509213153 52 229 2.0 6.0 0.00 0.68 0.43 97 1007.9
20260509211506 53 269 1.0 4.0 0.00 0.68 0.43 97 1007.8
20260509210107 52 229 3.0 7.0 0.00 0.68 0.43 97 1007.9
20260509204559 51 273 0.0 5.0 0.00 0.68 0.43 97 1007.8
20260509203157 50 288 0.0 4.0 0.00 0.68 0.43 97 1008.3
20260509201543 51 209 0.0 5.0 0.00 0.68 0.43 97 1008.3
20260509200043 50 241 0.0 4.0 0.01 0.68 0.43 97 1008.4
20260509194539 50 166 2.0 7.0 0.01 0.68 0.43 97 1008.6
20260509193139 50 268 1.0 8.0 0.02 0.69 0.43 97 1008.6
20260509191545 50 238 3.0 7.0 0.04 0.69 0.43 97 1008.6
20260509190044 49 256 2.0 7.0 0.07 0.68 0.42 96 1008.6
20260509184551 49 242 0.0 6.0 0.11 0.68 0.42 97 1008.7
20260509183141 49 230 4.0 9.0 0.11 0.67 0.41 97 1008.6
20260509181552 49 243 3.0 8.0 0.13 0.66 0.40 96 1008.7
20260509180046 49 234 1.0 7.0 0.10 0.62 0.36 96 1008.9
20260509174541 48 230 3.0 6.0 0.07 0.56 0.31 97 1008.7
20260509173138 48 221 3.0 10.0 0.07 0.56 0.30 96 1008.7
20260509171533 48 188 3.0 7.0 0.06 0.54 0.28 96 1008.7
20260509170039 48 213 0.0 4.0 0.05 0.52 0.26 97 1008.7
20260509164536 47 206 1.0 7.0 0.03 0.50 0.24 96 1008.7
20260509163128 47 281 1.0 6.0 0.03 0.49 0.23 96 1008.6
20260509161532 47 223 2.0 7.0 0.02 0.48 0.22 96 1008.7
20260509160031 47 221 1.0 7.0 0.01 0.47 0.21 96 1008.8
20260509154523 47 206 0.0 8.0 0.01 0.47 0.21 96 1009.0
20260509153123 47 241 1.0 7.0 0.00 0.46 0.20 96 1009.2
20260509151522 47 175 1.0 10.0 0.00 0.46 0.20 96 1009.2
20260509150021 46 167 2.0 10.0 0.00 0.46 0.20 96 1009.3
20260509144518 46 143 4.0 12.0 0.01 0.46 0.20 96 1009.3
20260509143119 46 206 0.0 11.0 0.02 0.46 0.20 96 1009.2
20260509141520 46 254 2.0 7.0 0.03 0.46 0.20 96 1009.3
20260509140018 46 221 1.0 9.0 0.03 0.46 0.20 96 1009.3
20260509134517 46 192 1.0 7.0 0.04 0.45 0.19 96 1009.6
20260509133116 46 206 2.0 8.0 0.04 0.44 0.18 96 1009.7
20260509131518 46 218 2.0 8.0 0.03 0.43 0.17 96 1009.8
20260509130017 46 192 1.0 9.0 0.04 0.43 0.17 96 1009.8
20260509124516 46 219 2.0 7.0 0.03 0.42 0.16 96 1010.0
20260509123115 45 190 0.0 6.0 0.02 0.41 0.14 96 1010.1
20260509121512 45 200 1.0 7.0 0.02 0.41 0.14 96 1010.0
20260509120007 45 212 0.0 7.0 0.02 0.40 0.13 96 1010.2
20260509114506 45 211 3.0 7.0 0.04 0.40 0.13 96 1010.2
20260509113106 45 203 0.0 4.0 0.06 0.40 0.13 96 1010.3
20260509111507 45 215 0.0 5.0 0.06 0.39 0.12 96 1010.5
20260509110006 45 202 2.0 6.0 0.07 0.38 0.11 96 1010.4